FW6259 Weather Reports


time (UTC)temp
C
wind
direction
speed
KPH
gust
KPH
rain 1hr
cm
rain 24hr
cm
rain mn
cm
humidity
%
barometer
mb
20260502123102 3 281 12.9 30.6 0.00 0.03 0.03 73 1011.2
20260502121505 3 252 11.3 17.7 0.00 0.03 0.03 75 1010.9
20260502114551 2 163 6.4 17.7 0.00 0.03 0.03 79 1010.6
20260502113041 2 152 9.7 25.7 0.00 0.03 0.03 80 1010.4
20260502111559 2 234 9.7 22.5 0.00 0.03 0.03 81 1010.2
20260502110052 2 148 8.0 29.0 0.00 0.03 0.03 81 1010.1
20260502104546 2 198 6.4 19.3 0.00 0.03 0.03 83 1009.7
20260502103101 2 229 6.4 25.7 0.00 0.03 0.03 84 1009.9
20260502101602 1 249 6.4 17.7 0.00 0.03 0.03 87 1009.4
20260502070053 3 188 8.0 22.5 0.00 0.00 0.00 82 1006.9
20260502064548 3 204 12.9 20.9 0.00 0.00 0.00 80 1006.8
20260502063059 3 176 9.7 27.4 0.00 0.00 0.00 78 1006.5
20260502061551 3 154 11.3 29.0 0.00 0.00 0.00 75 1006.1
20260502060044 4 136 9.7 27.4 0.00 0.00 0.00 74 1006.0
20260502054559 4 148 9.7 24.1 0.00 0.00 0.00 73 1006.1
20260502053048 5 165 1.6 12.9 0.00 0.00 0.00 71 1006.3
20260502051545 5 176 6.4 19.3 0.00 0.00 0.00 70 1006.4
20260502050056 5 108 3.2 8.0 0.00 0.00 0.00 65 1006.4
20260502044557 5 124 4.8 12.9 0.00 0.00 0.00 65 1006.7
20260502043051 5 125 4.8 11.3 0.00 0.00 0.00 62 1006.2
20260502041600 5 200 1.6 11.3 0.00 0.00 0.00 62 1006.3
20260502040059 5 136 1.6 12.9 0.00 0.00 0.00 64 1005.7
20260502034549 5 145 6.4 17.7 0.00 0.00 0.00 64 1005.8
20260502033045 6 134 4.8 20.9 0.00 0.00 0.00 64 1006.3
20260502031601 6 188 8.0 19.3 0.00 0.00 0.00 62 1006.6
20260502030050 6 193 14.5 29.0 0.00 0.00 0.00 59 1006.6
20260502024508 6 174 4.8 9.7 0.00 0.00 0.00 53 1006.9
20260502023059 6 119 4.8 16.1 0.00 0.00 0.00 56 1007.0
20260502021552 6 160 9.7 27.4 0.00 0.00 0.00 59 1007.1
20260502020048 6 180 11.3 22.5 0.00 0.00 0.00 58 1007.3
20260502014505 6 151 6.4 20.9 0.00 0.00 0.00 58 1007.9
20260502013054 6 143 9.7 25.7 0.00 0.00 0.00 57 1007.8
20260502011551 6 188 9.7 22.5 0.00 0.00 0.00 56 1008.0
20260502010002 6 148 6.4 33.8 0.00 0.00 0.00 55 1008.4
20260502004600 6 214 12.9 29.0 0.00 0.00 0.00 54 1008.6
20260502003049 7 224 8.0 30.6 0.00 0.00 0.00 51 1008.9
20260502001512 7 186 14.5 38.6 0.00 0.00 0.00 49 1008.7
20260502000106 8 249 14.5 35.4 0.00 0.00 0.00 48 1009.0
20260501234555 8 160 6.4 29.0 0.00 0.00 0.00 47 1009.4
20260501233044 7 143 9.7 40.2 0.00 0.00 0.00 49 1010.0
20260501231600 7 134 11.3 33.8 0.00 0.00 0.00 49 1010.7
20260501230052 7 133 12.9 43.5 0.00 0.00 0.00 49 1010.7
20260501224549 7 192 19.3 33.8 0.00 0.00 0.00 49 1010.3
20260501223042 7 173 12.9 38.6 0.00 0.00 0.00 49 1010.6
20260501221602 6 252 12.9 37.0 0.00 0.00 0.00 48 1011.3
20260501220055 6 235 11.3 24.1 0.00 0.00 0.00 49 1011.4
20260501214544 6 109 3.2 11.3 0.00 0.00 0.00 48 1012.0
20260501213104 6 87 1.6 9.7 0.00 0.00 0.00 48 1011.9
20260501211548 6 123 3.2 8.0 0.00 0.00 0.00 48 1012.3
20260501210045 6 149 1.6 8.0 0.00 0.00 0.00 48 1012.6
20260501204601 6 146 1.6 12.9 0.00 0.00 0.00 48 1012.6
20260501203049 6 77 3.2 9.7 0.00 0.00 0.00 48 1012.2
20260501201506 6 160 3.2 17.7 0.00 0.00 0.00 50 1012.5
20260501200057 6 160 6.4 27.4 0.00 0.00 0.00 50 1012.6
20260501194556 6 250 14.5 35.4 0.00 0.00 0.00 49 1012.7
20260501193045 5 189 9.7 20.9 0.00 0.00 0.00 49 1013.0
20260501191559 5 122 9.7 22.5 0.00 0.00 0.00 49 1013.5
20260501190055 5 212 3.2 9.7 0.00 0.00 0.00 49 1013.9
20260501184549 5 111 0.0 6.4 0.00 0.00 0.00 54 1014.1
20260501183100 5 86 1.6 8.0 0.00 0.00 0.00 53 1014.2
20260501181559 5 103 4.8 9.7 0.00 0.00 0.00 53 1014.3
20260501180051 4 82 0.0 6.4 0.00 0.00 0.00 55 1014.6
20260501174546 4 338 1.6 4.8 0.00 0.00 0.00 55 1014.7
20260501173001 4 72 3.2 11.3 0.00 0.00 0.00 53 1015.0
20260501171556 4 107 6.4 19.3 0.00 0.00 0.00 52 1015.0
20260501170055 3 55 0.0 3.2 0.00 0.00 0.00 58 1015.3
20260501164546 3 323 1.6 4.8 0.00 0.00 0.00 56 1015.7
20260501163057 3 85 0.0 11.3 0.00 0.00 0.00 55 1015.7
20260501161555 3 160 1.6 4.8 0.00 0.00 0.00 57 1015.5
20260501160048 3 105 0.0 4.8 0.00 0.00 0.00 58 1015.6
20260501154601 3 84 1.6 6.4 0.00 0.00 0.00 57 1016.0
20260501153103 3 67 1.6 3.2 0.00 0.00 0.00 57 1016.3
20260501151556 2 225 0.0 3.2 0.00 0.00 0.00 58 1016.6
20260501150002 2 60 0.0 3.2 0.00 0.00 0.00 59 1016.8